Regional Weather Roundup
Issued by NWS

Home | Current Version | Previous Version | Text Only | Print | Product List | Glossary On
Versions: 1 2 3 4 5 6 7 8 9 10 11 12 13 14 15 16 17 18 19 20 21 22 23 24 25 26 27 28 29 30 31 32 33 34 35 36 37 38 39 40 41 42 43 44 45 46 47 48 49 50
000
ASUS45 KBOI 220410
RWRID

IDAHO REGIONAL WEATHER ROUNDUP
NATIONAL WEATHER SERVICE BOISE ID
900 PM MST TUE NOV 21 2017

NOTE: "FAIR" INDICATES FEW OR NO CLOUDS BELOW 12000 FEET
WITH NO SIGNIFICANT WEATHER AND/OR OBSTRUCTIONS TO VISIBILITY

IDZ012-014-220500-
SOUTHWEST IDAHO


CITY           SKY/WX    TMP DP  RH WIND       PRES   REMARKS
BOISE          CLOUDY    54  49  83 SE9       30.26R
CALDWELL       LGT RAIN  49  48  97 CALM      30.26R FOG
MOUNTAIN HOME  LGT RAIN  52  52 100 E9        30.28R
$$

IDZ016-017-220500-
SOUTHCENTRAL IDAHO


CITY           SKY/WX    TMP DP  RH WIND       PRES   REMARKS
BURLEY         CLOUDY    47  45  93 CALM      30.31R
JEROME         CLOUDY    51  47  86 E9        30.33R
TWIN FALLS     CLOUDY    48  48 100 S3        30.31S
$$

IDZ019>023-220500-
SOUTHEAST IDAHO


CITY           SKY/WX    TMP DP  RH WIND       PRES   REMARKS
IDAHO FALLS    LGT RAIN  38  37  97 N3        30.36R
POCATELLO      LGT RAIN  43  42  97 CALM      30.37R
REXBURG        CLOUDY    38  38 100 CALM      30.35R FOG
$$

IDZ006-010-011-018-031-032-220500-
CENTRAL IDAHO MOUNTAINS


CITY           SKY/WX    TMP DP  RH WIND       PRES   REMARKS
MCCALL         LGT RAIN  39  39 100 CALM      30.28R VSB 1
HAILEY         CLOUDY    41  39  93 W8        30.37R
STANLEY          N/A     39  38  96 SE5       30.36R
SALMON         MIX PCPN  36  35  96 SE3       30.30S
CHALLIS        CLOUDY    38  34  85 CALM      30.30R
$$

IDZ002-004-006-007-026-220500-
NORTHERN IDAHO


CITY           SKY/WX    TMP DP  RH WIND       PRES   REMARKS
LEWISTON       CLOUDY    49  46  90 E9        30.10F
LOWELL           N/A     41  41 100 NW6       30.24F
COEUR D`ALENE  CLOUDY    40  39  97 NE6       30.06S
MULLAN PASS    LGT RAIN  37  35  92 VRB7      30.11R VSB 1/4 WCI  32
$$



USA.gov is the U.S. government's official web portal to all federal, state and local government web resources and services.